Location: Newark
(16.3678°N, 77.8722°E)
Time: 11:24:12
(UTC+00:00)

Explorer 11/Cluster Stage 4 - All Passes

Search period start: 16 December 2019 00:00
Search period end: 26 December 2019 00:00
Orbit: 467 x 1259 km, 28.8° (Epoch: 15 December)

Date Brightness Start Highest point End Pass type
(mag) Time Alt. Az. Time Alt. Az. Time Alt. Az.
16 Dec - 00:49:08 10° WSW 00:57:22 86° NNW 01:05:28 10° ENE daylight
16 Dec - 02:39:34 10° W 02:47:16 42° NNW 02:54:15 10° NE daylight
16 Dec - 04:30:59 10° WNW 04:37:30 29° N 04:43:09 10° NE daylight
16 Dec - 06:21:28 10° NW 06:27:35 34° N 06:32:37 10° ENE daylight
16 Dec - 08:10:57 10° WNW 08:16:50 81° NNE 08:21:28 10° ESE daylight
16 Dec - 10:01:29 10° W 10:04:54 19° SW 10:07:56 10° SSE daylight
16 Dec - 21:07:14 10° SSE 21:08:16 10° SE 21:09:19 10° SE visible
16 Dec - 22:50:03 10° SW 22:57:06 41° SSE 23:04:43 10° E visible
17 Dec - 00:38:22 10° WSW 00:46:29 78° NNW 00:54:39 10° ENE visible
17 Dec - 02:28:53 10° W 02:36:30 40° NNW 02:43:34 10° NE daylight
17 Dec - 04:20:11 10° WNW 04:26:53 30° N 04:32:44 10° ENE daylight
17 Dec - 06:10:29 10° NW 06:17:00 38° NNE 06:22:20 10° E daylight
17 Dec - 08:00:04 10° WNW 08:06:12 84° SSW 08:11:00 10° ESE daylight
17 Dec - 09:51:10 10° WSW 09:54:13 16° SW 09:56:56 10° S daylight
17 Dec - 20:54:40 10° SSE 20:57:27 12° SE 21:00:21 10° ESE visible
17 Dec - 22:39:07 10° SW 22:46:12 47° SSE 22:54:01 10° ENE visible
18 Dec - 00:27:38 10° WSW 00:35:38 70° NNW 00:43:49 10° ENE visible
18 Dec - 02:18:14 10° WNW 02:25:46 38° NNW 02:32:53 10° NE daylight
18 Dec - 04:09:22 10° WNW 04:16:15 31° N 04:22:19 10° ENE daylight
18 Dec - 05:59:30 10° NW 06:06:23 43° NNE 06:12:00 10° E daylight
18 Dec - 07:49:12 10° WNW 07:55:32 71° SSW 08:00:31 10° SE daylight
18 Dec - 09:41:01 10° WSW 09:43:30 13° SW 09:45:47 10° S daylight
18 Dec - 20:43:02 10° S 20:46:36 15° SE 20:50:29 10° ESE visible
18 Dec - 22:28:15 10° SW 22:35:17 54° SSE 22:43:14 10° ENE visible
19 Dec - 00:16:59 10° W 00:24:46 63° NNW 00:32:58 10° ENE visible
19 Dec - 02:07:36 10° WNW 02:15:02 36° N 02:22:11 10° NE daylight
19 Dec - 03:58:31 10° WNW 04:05:36 32° N 04:11:53 10° ENE daylight
19 Dec - 05:48:31 10° WNW 05:55:44 50° NNE 06:01:38 10° E daylight
19 Dec - 07:38:20 10° WNW 07:44:49 59° SSW 07:49:56 10° SE daylight
19 Dec - 09:31:13 10° SW 09:32:46 11° SW 09:34:15 10° SSW daylight
19 Dec - 20:31:41 10° S 20:35:47 17° SE 20:40:18 10° ESE visible
19 Dec - 22:17:28 10° SW 22:24:23 62° SSE 22:32:24 10° ENE visible
20 Dec - 00:06:22 10° W 00:13:58 56° NNW 00:22:05 10° ENE visible
20 Dec - 01:56:58 10° WNW 02:04:20 35° N 02:11:30 10° NE daylight
20 Dec - 03:47:40 10° WNW 03:54:56 34° N 04:01:28 10° ENE daylight
20 Dec - 05:37:31 10° WNW 05:45:03 57° NNE 05:51:14 10° E daylight
20 Dec - 07:27:29 10° WNW 07:34:03 50° SSW 07:39:19 10° SE daylight
20 Dec - 20:20:31 10° S 20:24:55 20° SE 20:29:56 10° E night (unlit)
20 Dec - 22:06:45 10° SW 22:13:31 72° SSE 22:21:31 10° ENE visible
20 Dec - 23:55:48 10° W 00:03:10 51° NNW 00:11:11 10° ENE visible
21 Dec - 01:46:21 10° WNW 01:53:36 34° N 02:00:48 10° ENE daylight
21 Dec - 03:36:48 10° NW 03:44:14 36° N 03:51:00 10° ENE daylight
21 Dec - 05:26:32 10° WNW 05:34:19 65° NNE 05:40:46 10° ESE daylight
21 Dec - 07:16:41 10° WNW 07:23:16 43° SSW 07:28:37 10° SE daylight
21 Dec - 20:09:29 10° SSW 20:14:06 23° SE 20:19:26 10° E night (unlit)
21 Dec - 21:56:05 10° WSW 22:02:41 82° SSE 22:10:37 10° ENE visible
21 Dec - 23:45:16 10° W 23:52:23 46° NNW 00:00:15 10° NE visible
22 Dec - 01:35:44 10° WNW 01:42:54 33° N 01:50:06 10° ENE daylight
22 Dec - 03:25:56 10° NW 03:33:32 39° N 03:40:32 10° ENE daylight
22 Dec - 05:15:34 10° WNW 05:23:33 73° NNE 05:30:15 10° ESE daylight
22 Dec - 07:05:55 10° W 07:12:27 37° SW 07:17:52 10° SSE daylight
22 Dec - 19:58:33 10° SSW 20:03:16 27° SE 20:08:51 10° E night (unlit)
22 Dec - 21:45:29 10° WSW 21:51:53 88° NNW 21:59:40 10° ENE visible
22 Dec - 23:34:47 10° W 23:41:39 42° NNW 23:49:20 10° NE visible
23 Dec - 01:25:08 10° WNW 01:32:12 33° N 01:39:26 10° ENE daylight
23 Dec - 03:15:04 10° NW 03:22:48 42° NNE 03:30:02 10° E daylight
23 Dec - 05:04:37 10° WNW 05:12:44 83° NNE 05:19:41 10° ESE daylight
23 Dec - 06:55:12 10° W 07:01:36 32° SW 07:07:02 10° SSE daylight
23 Dec - 19:47:42 10° SSW 19:52:28 31° SE 19:58:13 10° E night (unlit)
23 Dec - 21:34:57 10° WSW 21:41:06 77° NNW 21:48:43 10° ENE visible
23 Dec - 23:24:21 10° WNW 23:30:57 39° N 23:38:25 10° NE visible
24 Dec - 01:14:31 10° WNW 01:21:30 33° N 01:28:45 10° ENE daylight
24 Dec - 03:04:11 10° NW 03:12:03 45° NNE 03:19:30 10° E daylight
24 Dec - 04:53:41 10° WNW 05:01:54 87° SSW 05:09:03 10° ESE daylight
24 Dec - 06:44:32 10° W 06:50:44 28° SW 06:56:07 10° SSE daylight
24 Dec - 19:36:57 10° SSW 19:41:41 36° SE 19:47:30 10° E night (unlit)
24 Dec - 21:24:27 10° WSW 21:30:23 67° NNW 21:37:44 10° ENE visible
24 Dec - 23:13:56 10° WNW 23:20:15 36° N 23:27:29 10° NE visible
25 Dec - 01:03:54 10° WNW 01:10:48 33° N 01:18:04 10° ENE daylight
25 Dec - 02:53:20 10° WNW 03:01:15 49° NNE 03:08:55 10° E daylight
25 Dec - 04:42:47 10° WNW 04:51:02 77° SSW 04:58:21 10° ESE daylight
25 Dec - 06:33:58 10° W 06:39:53 24° SW 06:45:06 10° SSE daylight
25 Dec - 19:26:15 10° SW 19:30:55 43° SSE 19:36:45 10° ENE night (unlit)
25 Dec - 21:14:02 10° W 21:19:41 58° NNW 21:26:45 10° ENE visible
25 Dec - 23:03:32 10° WNW 23:09:36 33° N 23:16:34 10° NE visible
